DW6345 Murcia ES current weather conditions

sailwx.info

Wind from 312 at 5 knots gusting 10

Air temperature 27.8° C
Dewpoint 8.6° C

Last reported at 2015-Apr-25 14:44 UTC.
Time now 2015-Apr-25 16:03 UTC

Location: N 37°60' W 001°06'.
View on Google Maps.

See reports from other nearby stations

  
Tides and Currents Weather Stations Pressure Air Temp Water Temp Dewpoint Dewpoint Depression Visibility Wind Speed Wind Dir Waves Ship Positions
date/time (UTC)wind fromknots sea level pressurealtimeterstation pressurevisibilityair tempwater tempwave heightnotes
2015-Apr-25 14:44 312 5 gusting 10 27.8
2015-Apr-25 14:34 180 4 gusting 6 28.9
2015-Apr-25 14:24 135 0 gusting 2 28.9
2015-Apr-25 14:14 173 0 gusting 4 27.8
2015-Apr-25 14:04 045 1 gusting 6 27.8
2015-Apr-25 13:54 270 0 gusting 5 27.2
2015-Apr-25 13:44 045 2 gusting 5 27.2
2015-Apr-25 13:34 266 1 gusting 4 27.2
2015-Apr-25 13:24 309 0 gusting 5 27.8
2015-Apr-25 13:14 273 0 gusting 4 27.2
2015-Apr-25 13:04 225 26.1
2015-Apr-25 12:54 270 1 gusting 6 26.1
2015-Apr-25 12:44 183 2 gusting 6 26.1
2015-Apr-25 12:34 273 3 gusting 6 26.1
2015-Apr-25 12:24 276 2 gusting 8 26.1
2015-Apr-25 12:14 315 4 gusting 8 26.1
2015-Apr-25 12:04 270 2 gusting 8 26.1
2015-Apr-25 11:54 315 2 gusting 11 25.6
2015-Apr-25 11:44 312 4 gusting 11 25.6
2015-Apr-25 11:34 270 5 gusting 8 26.1
2015-Apr-25 11:24 273 6 gusting 10 26.1
2015-Apr-25 11:14 315 6 gusting 11 25.6
2015-Apr-25 11:04 315 6 gusting 10 25.6
2015-Apr-25 10:54 312 6 gusting 10 25.6
2015-Apr-25 10:44 312 4 gusting 11 25.0
2015-Apr-25 10:34 274 7 gusting 11 25.0
2015-Apr-25 10:24 315 4 gusting 13 25.0
2015-Apr-25 10:14 270 5 gusting 12 25.0
2015-Apr-25 10:04 315 5 gusting 11 24.4
2015-Apr-25 09:54 041 2 gusting 12 24.4
2015-Apr-25 09:44 090 5 gusting 13 23.9
2015-Apr-25 09:34 039 6 gusting 14 23.9
2015-Apr-25 09:24 042 5 gusting 11 23.9
2015-Apr-25 09:14 318 6 gusting 11 22.8
2015-Apr-25 09:04 270 2 gusting 10 22.2
2015-Apr-25 08:54 312 2 gusting 13 22.2
2015-Apr-25 08:44 315 5 gusting 10 21.7
2015-Apr-25 08:34 313 3 gusting 6 21.1
2015-Apr-25 08:24 315 2 gusting 5 20.6
2015-Apr-25 08:14 315 2 gusting 6 20.0
2015-Apr-25 08:04 270 2 gusting 5 19.4
2015-Apr-25 07:54 270 2 gusting 5 18.3
2015-Apr-25 07:44 270 1 gusting 2 17.8
2015-Apr-25 07:34 275 1 gusting 6 17.2
2015-Apr-25 07:24 225 4 gusting 6 16.7
2015-Apr-25 07:14 270 2 gusting 6 16.7
2015-Apr-25 07:04 180 2 gusting 6 16.7
2015-Apr-25 06:54 270 1 gusting 5 16.7
2015-Apr-25 06:44 270 2 gusting 5 16.1
2015-Apr-25 06:34 270 1 gusting 2 16.1
2015-Apr-25 06:24 263 0 gusting 1 16.1
2015-Apr-25 06:14 135 15.6
2015-Apr-25 06:04 132 0 gusting 2 15.6
2015-Apr-25 05:54 315 0 gusting 2 15.6
2015-Apr-25 05:44 270 1 gusting 4 15.6
2015-Apr-25 05:34 270 1 gusting 5 15.6
2015-Apr-25 05:24 270 2 gusting 6 15.6
2015-Apr-25 05:14 270 2 gusting 5 15.6
2015-Apr-25 05:04 315 0 gusting 6 15.6
2015-Apr-25 04:54 187 2 gusting 5 15.6
2015-Apr-25 04:44 270 1 gusting 5 15.6
2015-Apr-25 04:34 270 3 gusting 6 15.6
2015-Apr-25 04:24 270 3 gusting 6 15.6
2015-Apr-25 04:14 270 2 gusting 5 15.6
2015-Apr-25 04:04 270 2 gusting 5 15.6
2015-Apr-25 03:54 270 1 gusting 6 15.6
2015-Apr-25 03:44 313 2 gusting 6 15.6
2015-Apr-25 03:34 270 5 gusting 7 15.6
2015-Apr-25 03:24 273 2 gusting 6 15.6
2015-Apr-25 03:14 270 2 gusting 6 15.6
2015-Apr-25 03:04 315 2 gusting 5 16.1
2015-Apr-25 02:54 274 2 gusting 6 16.1
2015-Apr-25 02:44 270 2 gusting 6 16.1
2015-Apr-25 02:34 270 4 gusting 6 16.1
2015-Apr-25 02:24 273 1 gusting 4 16.1
2015-Apr-25 02:14 180 1 gusting 2 16.1
2015-Apr-25 02:04 180 0 gusting 2 16.1
2015-Apr-25 01:54 159 0 gusting 5 16.1
2015-Apr-25 01:44 180 1 gusting 4 16.7
2015-Apr-25 01:34 270 1 gusting 5 16.7
2015-Apr-25 01:24 270 2 gusting 5 16.1
2015-Apr-25 01:14 273 0 gusting 1 16.7
2015-Apr-25 01:04 315 0 gusting 1 16.7
2015-Apr-25 00:54 315 0 gusting 2 16.7
2015-Apr-25 00:44 045 0 gusting 5 16.7
2015-Apr-25 00:34 270 2 gusting 5 16.7
2015-Apr-25 00:24 311 2 gusting 4 16.7
2015-Apr-25 00:14 270 2 gusting 5 16.7
2015-Apr-25 00:04 315 1 gusting 4 16.7
2015-Apr-24 23:54 270 0 gusting 4 16.7
2015-Apr-24 23:44 043 1 gusting 5 16.7
2015-Apr-24 23:34 312 2 gusting 5 17.2
2015-Apr-24 23:24 310 1 gusting 4 17.2
2015-Apr-24 23:14 315 2 gusting 5 17.2
2015-Apr-24 23:04 270 2 gusting 5 17.2
2015-Apr-24 22:54 315 4 gusting 7 17.2
2015-Apr-24 22:44 270 2 gusting 11 17.2
2015-Apr-24 22:34 270 5 gusting 12 17.8
2015-Apr-24 22:24 270 2 gusting 4 17.8
2015-Apr-24 22:14 135 1 gusting 5 17.8
2015-Apr-24 22:04 180 0 gusting 5 17.8
2015-Apr-24 21:54 132 2 gusting 5 17.8
2015-Apr-24 21:44 087 2 gusting 5 17.8
2015-Apr-24 21:34 090 2 gusting 5 17.8
2015-Apr-24 21:24 090 2 gusting 6 17.8
2015-Apr-24 21:14 093 4 gusting 6 17.8
2015-Apr-24 21:04 135 2 gusting 5 18.3
2015-Apr-24 20:54 090 2 gusting 7 18.3
2015-Apr-24 20:44 090 4 gusting 7 18.3
2015-Apr-24 20:34 090 6 gusting 11 18.3
2015-Apr-24 20:24 048 5 gusting 7 18.3
2015-Apr-24 20:14 047 2 gusting 6 18.9
2015-Apr-24 20:04 090 2 gusting 8 18.9
2015-Apr-24 19:54 090 6 gusting 8 18.9
2015-Apr-24 19:44 090 4 gusting 7 19.4
2015-Apr-24 19:34 090 4 gusting 8 19.4
2015-Apr-24 19:24 095 4 gusting 8 19.4
2015-Apr-24 19:14 048 5 gusting 8 20.0
2015-Apr-24 19:04 090 5 gusting 8 20.6
2015-Apr-24 18:54 090 4 gusting 7 20.6
2015-Apr-24 18:44 090 5 gusting 6 21.7
2015-Apr-24 18:34 090 4 gusting 8 21.7
2015-Apr-24 18:24 090 4 gusting 6 21.7
2015-Apr-24 18:14 093 4 gusting 6 22.2
2015-Apr-24 18:04 135 2 gusting 8 22.2
2015-Apr-24 17:54 135 4 gusting 10 22.8
2015-Apr-24 17:44 180 4 gusting 10 22.8
2015-Apr-24 17:34 090 2 gusting 6 22.8
2015-Apr-24 17:24 135 5 gusting 8 22.8
2015-Apr-24 17:14 138 4 gusting 8 23.3
2015-Apr-24 17:04 180 4 gusting 11 23.3
2015-Apr-24 16:54 178 4 gusting 11 23.9
2015-Apr-24 16:44 177 6 gusting 13 23.9
2015-Apr-24 16:34 135 6 gusting 13 24.4
2015-Apr-24 16:24 180 8 gusting 13 24.4
2015-Apr-24 16:14 090 6 gusting 13 24.4
2015-Apr-24 16:04 179 7 gusting 13 25.0
2015-Apr-24 15:54 135 5 gusting 12 25.0
2015-Apr-24 15:44 177 6 gusting 11 25.0
2015-Apr-24 15:34 180 7 gusting 12 25.6
2015-Apr-24 15:24 156 2 gusting 10 25.6
2015-Apr-24 15:14 180 6 gusting 10 26.1
2015-Apr-24 15:04 180 6 gusting 10 26.1
2015-Apr-24 14:54 180 7 gusting 13 26.1
2015-Apr-24 14:44 180 5 gusting 11 26.1
2015-Apr-24 14:34 180 8 gusting 13 26.1
2015-Apr-24 14:24 220 5 gusting 11 26.1
2015-Apr-24 14:14 139 5 gusting 10 26.1
2015-Apr-24 14:04 180 6 gusting 11 26.1
2015-Apr-24 13:54 180 5 gusting 13 26.1
2015-Apr-24 13:44 180 8 gusting 13 26.1
2015-Apr-24 13:34 183 5 gusting 13 26.1
2015-Apr-24 13:24 180 7 gusting 13 26.1
2015-Apr-24 13:14 180 6 gusting 12 26.1
2015-Apr-24 13:04 158 7 gusting 12 26.1
2015-Apr-24 12:54 180 6 gusting 13 26.1
2015-Apr-24 12:44 180 7 gusting 13 26.1
2015-Apr-24 12:34 180 7 gusting 13 26.1
2015-Apr-24 12:24 180 6 gusting 11 26.1
2015-Apr-24 12:14 135 6 gusting 11 26.1
2015-Apr-24 12:04 045 2 gusting 6 26.1
2015-Apr-24 11:54 138 2 gusting 10 26.1
2015-Apr-24 11:44 094 7 gusting 12 25.6
2015-Apr-24 11:34 090 6 gusting 11 25.0
2015-Apr-24 11:24 137 5 gusting 11 25.0
2015-Apr-24 11:14 045 2 gusting 6 25.0
2015-Apr-24 11:04 045 0 gusting 6 24.4
2015-Apr-24 10:54 174 2 gusting 8 24.4
2015-Apr-24 10:44 045 4 gusting 7 24.4
2015-Apr-24 10:34 090 5 gusting 6 24.4
2015-Apr-24 10:24 133 0 gusting 5 23.9
2015-Apr-24 10:14 092 0 gusting 6 23.3
2015-Apr-24 10:04 045 0 gusting 5 23.3
2015-Apr-24 09:54 133 1 gusting 5 22.8
2015-Apr-24 09:44 087 0 gusting 5 22.2
2015-Apr-24 09:34 090 2 gusting 6 21.7
2015-Apr-24 09:24 092 0 gusting 5 22.2
2015-Apr-24 09:14 113 3 gusting 5 21.7
2015-Apr-24 09:04 135 0 gusting 5 20.6
2015-Apr-24 08:54 097 0 gusting 5 20.6
2015-Apr-24 08:44 093 2 gusting 5 20.0
2015-Apr-24 08:34 048 2 gusting 6 19.4
2015-Apr-24 08:24 090 1 gusting 5 19.4
2015-Apr-24 08:14 130 1 gusting 5 18.9
2015-Apr-24 08:04 090 1 gusting 4 18.9
2015-Apr-24 07:54 090 0 gusting 4 18.9
2015-Apr-24 07:44 134 1 gusting 2 18.9
2015-Apr-24 07:34 135 0 gusting 2 17.8
2015-Apr-24 07:24 135 1 gusting 2 17.8
2015-Apr-24 07:14 092 0 gusting 2 17.2
2015-Apr-24 07:04 090 0 gusting 2 16.7
2015-Apr-24 06:54 090 0 gusting 1 16.1
2015-Apr-24 06:44 180 15.6
2015-Apr-24 06:34 180 15.0
2015-Apr-24 06:24 135 0 gusting 0 14.4
2015-Apr-24 06:14 045 13.9
2015-Apr-24 06:04 180 0 gusting 1 13.3
2015-Apr-24 05:54 090 13.3
2015-Apr-24 05:44 090 0 gusting 2 13.3
2015-Apr-24 05:34 045 13.9
2015-Apr-24 05:24 180 13.9
2015-Apr-24 05:14 180 0 gusting 0 13.9
2015-Apr-24 05:04 177 0 gusting 1 13.9
2015-Apr-24 04:54 180 13.9
2015-Apr-24 04:44 180 13.9
2015-Apr-24 04:34 093 0 gusting 1 13.9
2015-Apr-24 04:24 090 0 gusting 1 14.4
2015-Apr-24 04:14 051 0 gusting 2 14.4
2015-Apr-24 04:04 045 15.0
2015-Apr-24 03:54 315 0 gusting 2 15.6
2015-Apr-24 03:44 268 0 gusting 1 15.6
2015-Apr-24 03:34 248 0 gusting 2 15.6
2015-Apr-24 03:24 270 1 gusting 2 15.0
2015-Apr-24 03:14 248 0 gusting 2 15.0
2015-Apr-24 03:04 180 0 gusting 0 15.0
2015-Apr-24 02:54 270 15.0
2015-Apr-24 02:44 045 15.0
2015-Apr-24 02:34 045 0 gusting 2 15.6
2015-Apr-24 02:24 315 1 gusting 4 16.1
2015-Apr-24 02:14 270 2 gusting 4 16.1
2015-Apr-24 02:04 315 0 gusting 1 16.1
2015-Apr-24 01:54 270 16.1
2015-Apr-24 01:44 269 0 gusting 2 16.1
2015-Apr-24 01:34 225 0 gusting 2 16.1
2015-Apr-24 01:24 248 0 gusting 2 16.1
2015-Apr-24 01:14 189 0 gusting 2 16.1
2015-Apr-24 01:04 225 0 gusting 2 16.1
2015-Apr-24 00:54 225 1 gusting 2 16.1
2015-Apr-24 00:44 135 0 gusting 0 16.1
2015-Apr-24 00:34 090 16.1
2015-Apr-24 00:24 180 16.1
2015-Apr-24 00:14 180 0 gusting 2 16.1
2015-Apr-24 00:04 158 16.1
2015-Apr-23 23:54 180 0 gusting 1 16.1
2015-Apr-23 23:44 129 0 gusting 2 16.7
2015-Apr-23 23:34 135 1 gusting 4 16.7
2015-Apr-23 23:24 090 1 gusting 2 16.7
2015-Apr-23 23:14 090 0 gusting 2 16.7
2015-Apr-23 23:04 090 1 gusting 2 16.7
2015-Apr-23 22:54 096 0 gusting 2 16.7
2015-Apr-23 22:44 135 0 gusting 2 16.7
2015-Apr-23 22:34 135 0 gusting 2 16.7
2015-Apr-23 22:24 130 0 gusting 2 16.7
2015-Apr-23 22:14 090 1 gusting 4 17.2
2015-Apr-23 22:04 045 0 gusting 5 17.2
2015-Apr-23 21:54 087 1 gusting 5 17.2
2015-Apr-23 21:44 090 2 gusting 5 17.2
2015-Apr-23 21:34 135 2 gusting 6 17.2
2015-Apr-23 21:24 090 3 gusting 6 17.8
2015-Apr-23 21:14 090 2 gusting 8 17.8
2015-Apr-23 21:04 090 6 gusting 8 17.8
2015-Apr-23 20:54 090 4 gusting 6 17.8
2015-Apr-23 20:44 090 4 gusting 6 17.8
2015-Apr-23 20:34 090 4 gusting 6 17.8
2015-Apr-23 20:24 090 3 gusting 7 18.3
2015-Apr-23 20:14 090 5 gusting 6 18.3
2015-Apr-23 20:04 090 2 gusting 6 18.3
2015-Apr-23 19:54 090 4 gusting 7 18.9
2015-Apr-23 19:44 090 5 gusting 7 18.9
2015-Apr-23 19:34 090 2 gusting 7 18.9
2015-Apr-23 19:24 090 5 gusting 7 19.4
2015-Apr-23 19:14 090 5 gusting 8 19.4
2015-Apr-23 19:04 090 6 gusting 7 20.0
2015-Apr-23 18:54 090 5 gusting 7 20.0
2015-Apr-23 18:44 093 4 gusting 8 20.6
2015-Apr-23 18:34 090 5 gusting 8 20.6
2015-Apr-23 18:24 093 7 gusting 11 20.6
2015-Apr-23 18:14 090 6 gusting 13 21.1
2015-Apr-23 18:04 088 7 gusting 13 21.1
2015-Apr-23 17:54 090 6 gusting 13 21.7
2015-Apr-23 17:44 090 7 gusting 14 21.7
2015-Apr-23 17:34 090 10 gusting 14 21.7
2015-Apr-23 17:24 090 7 gusting 13 22.2
2015-Apr-23 17:14 090 6 gusting 11 22.2
2015-Apr-23 17:04 090 6 gusting 11 22.8
2015-Apr-23 16:54 129 6 gusting 13 22.8
2015-Apr-23 16:44 068 6 gusting 14 23.3
2015-Apr-23 16:34 090 5 gusting 13 23.3
2015-Apr-23 16:24 090 8 gusting 14 23.9
2015-Apr-23 16:14 088 7 gusting 17 23.9
2015-Apr-23 16:04 135 8 gusting 15 24.4